[[{"header":{"parameterUnit":"m.s-1","parameterCategory":1,"la1":30.2991,"la2":30.254,"lo1":-89.0895,"lo2":-89.0444,"dy":0.0017,"dx":0.0017,"nx":28,"ny":28,"refTime":"2023-09-21T21:00:00:Z","depth":0,"parameterNumber":2,"parameterNumberName":"U-component_of_WINDS"},"data":[0,0,0,0,0,0,0,0,0,0,0,0,0,0,0,0,0,0,0,0,0,0,0,0,0,0,0,0,0,0,0,0,0,0,0,0,0,0,0,0,0,0,0,0,0,0,0,0,0,0,0,0,0,0,0,0,0,0,-2.7533,-2.7534,0,-2.7601,-2.7602,-2.7602,-2.7532,-2.753,-2.7527,-2.7524,-2.7596,-2.7601,-2.7605,0,0,0,0,0,0,0,0,0,0,0,0,0,-2.7348,-2.7352,-2.7533,-2.7534,-2.7535,-2.7601,-2.7602,-2.7603,-2.7533,-2.753,-2.7526,-2.7523,-2.7595,-2.76,-2.7605,0,0,0,0,0,0,0,0,0,0,0,0,0,-2.7423,-2.7353,-2.7533,-2.7508,-2.7506,-2.7601,-2.7602,-2.7603,-2.7534,-2.7529,-2.7525,-2.7522,-2.7593,-2.7599,-2.7606,-2.7729,0,0,-2.7626,-2.7629,0,0,0,0,0,0,0,0,-2.7419,-2.743,-2.7511,-2.751,-2.7508,-2.7554,-2.7563,-2.7645,-2.7535,-2.7523,-2.7524,-2.752,-2.7586,-2.7593,-2.7614,-2.7732,-2.7735,-2.7627,-2.7631,-2.7634,-2.7636,0,0,0,0,0,0,0,-2.7414,-2.7427,-2.756,-2.7512,-2.7511,-2.7495,-2.7501,-2.7578,-2.7577,-2.7524,-2.7519,-2.7528,-2.7584,-2.7608,-2.7616,-2.7736,-2.7627,-2.7633,-2.7637,-2.764,-2.796,-2.7965,0,0,0,0,0,0,-2.7411,-2.7423,-2.7558,-2.7562,-2.7453,-2.7501,-2.7508,-2.7544,-2.7576,-2.7577,-2.7531,-2.7524,-2.7599,-2.7608,-2.7618,-2.7764,-2.7634,-2.764,-2.7644,-2.7956,-2.7961,-2.7966,0,0,0,0,0,0,-2.7407,-2.7424,-2.7555,-2.7491,-2.7507,-2.7509,-2.7549,-2.7547,-2.7571,-2.7581,-2.7581,-2.7556,-2.7596,-2.7608,-2.7702,-2.7766,-2.7643,-2.7649,-2.7951,-2.7958,-2.7964,-2.8058,0,0,0,0,0,0,-2.7402,-2.7423,-2.7469,-2.7493,-2.751,-2.7637,-2.7553,-2.7551,-2.7582,-2.7574,-2.7604,-2.7605,-2.7594,-2.7692,-2.7709,-2.7773,-2.7654,-2.7945,-2.7954,-2.7962,-2.8049,-2.8067,-2.8083,0,0,0,0,0,-2.7396,-2.7493,-2.7471,-2.7488,-2.7567,-2.7641,-2.7651,-2.7635,-2.7587,-2.7634,-2.7641,-2.7604,-2.7757,-2.7703,-2.772,-2.7787,-2.7941,-2.7951,-2.7961,-2.8042,-2.8064,-2.8082,0,0,0,0,0,0,-2.7476,-2.7495,-2.7472,-2.7579,-2.7609,-2.7629,-2.7687,-2.7659,-2.7704,-2.7694,-2.7673,-2.7681,-2.778,-2.7793,-2.7733,-2.7909,-2.7841,-2.7855,-2.7896,-2.7917,-2.7934,-2.7928,-2.766,0,0,0,0,0,-2.7506,-2.7564,-2.7578,-2.7671,-2.7687,-2.7685,-2.7716,-2.7702,-2.7732,-2.7745,-2.7758,-2.7791,-2.7846,-2.7882,-2.7934,-2.8051,-2.8058,-2.8107,-2.8123,-2.8137,-2.8149,-2.8214,-2.8236,-2.8,-2.8,-2.7999,0,0,-2.7569,-2.7587,-2.7624,-2.7687,-2.7709,-2.777,-2.7696,-2.7763,-2.7808,-2.7755,-2.7844,-2.7856,-2.789,-2.7997,-2.8045,-2.8011,-2.8216,-2.815,-2.8161,-2.8166,-2.8226,-2.8249,-2.8269,-2.8007,-2.8005,-2.8004,0,0,-2.7714,-2.7733,-2.7813,-2.7837,-2.787,-2.7868,-2.7888,-2.7913,-2.7918,-2.8007,-2.7969,-2.8024,-2.8119,-2.8145,-2.8171,-2.8329,-2.8297,-2.8347,-2.8434,-2.8497,-2.8515,-2.8532,-2.8589,-2.8609,-2.8359,-2.836,-2.836,0,-2.7788,-2.7877,-2.7858,-2.7929,-2.7958,-2.7913,-2.7995,-2.8019,-2.8068,-2.809,-2.8051,-2.8171,-2.8191,-2.8303,-2.8342,-2.8365,-2.8387,-2.8343,-2.8514,-2.853,-2.8545,-2.8599,-2.8621,-2.8365,-2.8365,-2.8364,-2.8364,0,-2.7967,-2.8029,-2.809,-2.8138,-2.8175,-2.8251,-2.8245,-2.8285,-2.8268,-2.8271,-2.8363,-2.8386,-2.8441,-2.8467,-2.8451,-2.8579,-2.8557,-2.8517,-2.8448,-2.8574,-2.8624,-2.8645,-2.8374,-2.8372,-2.837,-2.8368,0,0,-2.8162,-2.82,-2.8223,-2.8244,-2.8279,-2.8328,-2.8403,-2.8457,-2.8491,-2.8528,-2.8591,-2.8673,-2.8637,-2.8667,-2.8654,-2.871,-2.8834,-2.8663,-2.8663,-2.8694,-2.8977,-2.9006,-2.903,-2.8814,-2.8818,-2.8821,-2.8974,0,-2.8308,-2.8436,-2.8423,-2.8546,-2.8604,-2.8563,-2.8628,-2.8658,-2.8663,-2.8715,-2.8721,-2.878,-2.8728,-2.8745,-2.8799,-2.8808,-2.8891,-2.8797,-2.8873,-2.8876,-2.8864,-2.9056,-2.9087,-2.923,-2.8993,-2.8997,-2.8999,0,-2.8495,-2.8538,-2.8666,-2.8693,-2.8717,-2.8776,-2.8825,-2.8874,-2.8908,-2.8908,-2.8942,-2.892,-2.8997,-2.8928,-2.9034,-2.8971,-2.9002,-2.9011,-2.9017,-2.9022,-2.8944,-2.9067,-2.9275,-2.9297,-2.903,-2.9027,-2.9025,0,-2.8625,-2.8715,-2.8803,-2.8823,-2.8857,-2.89,-2.8916,-2.8945,-2.8979,-2.9023,-2.9045,-2.9097,-2.9126,-2.9168,-2.9162,-2.9111,-2.9271,-2.92,-2.9274,-2.9274,-2.9308,-2.9306,-2.9524,-2.9329,-2.9329,-2.9328,-2.9328,0,-2.8789,-2.8869,-2.8862,-2.8917,-2.9006,-2.8991,-2.908,-2.9091,-2.9118,-2.9175,-2.9144,-2.9199,-2.9187,-2.9242,-2.9238,-2.9327,-2.9341,-2.9344,-2.9341,-2.9346,-2.9346,-2.9365,-2.9355,-2.9334,-2.9333,-2.9332,-2.9331,0,-2.8949,-2.8947,-2.9041,-2.9066,-2.9074,-2.9139,-2.916,-2.9213,-2.9216,-2.9289,-2.9306,-2.9312,-2.9375,-2.9373,-2.9445,-2.9442,-2.9552,-2.9539,-2.9541,-2.9538,-2.9611,-2.9604,-2.9849,-2.988,-2.9666,-2.9668,-2.9669,0,-2.9053,-2.9114,-2.9145,-2.9181,-2.92,-2.9258,-2.9292,-2.928,-2.9318,-2.9362,-2.9409,-2.9469,-2.9517,-2.962,-2.9632,-2.9687,-2.9675,-2.9757,-2.9683,-2.9686,-2.9676,-2.9672,-2.9679,-2.9771,-2.9773,-2.9775,-2.9777,0,-2.9239,-2.9235,-2.9285,-2.9336,-2.9378,-2.9418,-2.9454,-2.9486,-2.9478,-2.9522,-2.9586,-2.9623,-2.9697,-2.9757,-2.9811,-2.9829,-2.9803,-2.9801,-2.982,-2.9825,-2.9824,-2.9826,-2.958,-2.9795,-2.9793,-2.9792,-2.9791,-2.979,-2.9374,-2.9426,-2.9457,-2.9514,-2.954,-2.9576,-2.9626,-2.9637,-2.9689,-2.9748,-2.9738,-2.981,-2.9844,-2.9913,-2.9937,-2.9994,-2.9965,-2.9994,-3.0001,-3.0008,-3.0016,-2.9816,-3.0004,-3.0003,-3.0003,-3.0002,-3.0002,0,-2.9557,-2.9575,-2.9629,-2.968,-2.9726,-2.9697,-2.9736,-2.9777,-2.984,-2.9874,-2.9921,-2.9996,-3.0055,-3.0072,-3.013,-3.0173,-3.0162,-3.0188,-3.0185,-3.019,-3.0039,-3.0016,-3.0196,-3.0196,-3.0196,-3.0196,-3.0196,-3.0196,-2.9658,-2.9746,-2.9747,-2.9848,-2.9865,-2.9935,-2.996,-2.9993,-3.002,-3.0104,-3.0153,-3.0163,-3.0191,-3.0251,-3.0304,-3.0308,-3.0331,-3.0362,-3.0361,-3.0219,-3.02,-3.0181,-3.016,-3.0367,-3.0367,-3.0507,-3.0508,-3.0509]},{"header":{"parameterUnit":"m.s-1","parameterCategory":1,"la1":30.2991,"la2":30.254,"lo1":-89.0895,"lo2":-89.0444,"dy":0.0017,"dx":0.0017,"nx":28,"ny":28,"refTime":"2023-09-21T21:00:00:Z","depth":0,"parameterNumber":3,"parameterNumberName":"V-component_of_WINDS"},"data":[0,0,0,0,0,0,0,0,0,0,0,0,0,0,0,0,0,0,0,0,0,0,0,0,0,0,0,0,0,0,0,0,0,0,0,0,0,0,0,0,0,0,0,0,0,0,0,0,0,0,0,0,0,0,0,0,0,0,2.391,2.391,0,2.3872,2.3871,2.3871,2.3864,2.3865,2.3865,2.3865,2.3818,2.3817,2.3815,0,0,0,0,0,0,0,0,0,0,0,0,0,2.3972,2.3971,2.391,2.391,2.3909,2.3872,2.3871,2.3871,2.3864,2.3865,2.3865,2.3865,2.3819,2.3817,2.3815,0,0,0,0,0,0,0,0,0,0,0,0,0,2.3941,2.3971,2.391,2.3902,2.3901,2.3872,2.3871,2.387,2.3864,2.3865,2.3865,2.3866,2.3819,2.3817,2.3815,2.379,0,0,2.3807,2.3806,0,0,0,0,0,0,0,0,2.3942,2.3938,2.3903,2.3902,2.3901,2.3873,2.3876,2.3843,2.3864,2.3878,2.3865,2.3866,2.3836,2.3832,2.3823,2.3787,2.3785,2.3807,2.3806,2.3805,2.3804,0,0,0,0,0,0,0,2.3945,2.394,2.3895,2.3903,2.3901,2.3898,2.3894,2.387,2.3854,2.3876,2.3876,2.3872,2.3835,2.3826,2.3822,2.3785,2.3807,2.3805,2.3804,2.3803,2.3726,2.3725,0,0,0,0,0,0,2.3949,2.3942,2.3896,2.3894,2.3924,2.3896,2.3892,2.3882,2.3854,2.3851,2.3871,2.3872,2.3829,2.3825,2.382,2.3789,2.3805,2.3803,2.3801,2.3727,2.3726,2.3725,0,0,0,0,0,0,2.3951,2.3945,2.3898,2.3918,2.3911,2.3895,2.3883,2.3881,2.3871,2.3851,2.3847,2.3865,2.383,2.3824,2.3798,2.3787,2.3802,2.3799,2.3727,2.3726,2.3726,2.3727,0,0,0,0,0,0,2.3952,2.3946,2.3937,2.3918,2.391,2.3877,2.3883,2.3879,2.3868,2.3868,2.3844,2.384,2.383,2.3801,2.3796,2.3784,2.3798,2.3728,2.3727,2.3726,2.3727,2.3726,2.3724,0,0,0,0,0,2.3955,2.3938,2.3937,2.3932,2.39,2.3877,2.3872,2.3863,2.3867,2.3858,2.3845,2.3841,2.379,2.3799,2.3792,2.378,2.3729,2.3727,2.3726,2.3728,2.3726,2.3725,0,0,0,0,0,0,2.3954,2.3935,2.3934,2.391,2.3896,2.3876,2.3864,2.3861,2.3843,2.3843,2.383,2.3825,2.3799,2.3787,2.3797,2.3754,2.3759,2.3757,2.3763,2.3761,2.376,2.3763,2.3796,0,0,0,0,0,2.3951,2.3937,2.392,2.39,2.3893,2.388,2.387,2.3864,2.3847,2.384,2.3825,2.3807,2.3787,2.3773,2.3754,2.3726,2.372,2.3715,2.3713,2.3712,2.3709,2.3693,2.369,2.3721,2.3721,2.3721,0,0,2.3945,2.3933,2.3924,2.39,2.3888,2.3871,2.3875,2.3856,2.3843,2.3836,2.3812,2.38,2.3779,2.3752,2.3739,2.3741,2.37,2.371,2.371,2.3707,2.3692,2.3689,2.3686,2.372,2.372,2.372,0,0,2.3925,2.3915,2.3898,2.3886,2.3869,2.3861,2.3857,2.3838,2.3831,2.3806,2.3801,2.3784,2.375,2.3735,2.3723,2.3699,2.3695,2.3693,2.3685,2.3669,2.3667,2.3665,2.3655,2.3652,2.3691,2.3691,2.3691,0,2.3918,2.3895,2.3889,2.3871,2.386,2.3857,2.3839,2.3827,2.3803,2.3795,2.3798,2.3756,2.3741,2.3711,2.3706,2.3696,2.369,2.3695,2.3669,2.3666,2.3664,2.3655,2.3651,2.3691,2.3691,2.3691,2.3691,0,2.3888,2.3871,2.3859,2.384,2.3828,2.381,2.3799,2.3787,2.3783,2.3773,2.3748,2.3731,2.3708,2.3701,2.3695,2.3669,2.3671,2.3672,2.3676,2.3661,2.3652,2.3649,2.369,2.369,2.369,2.3691,0,0,2.3864,2.3843,2.3838,2.383,2.3811,2.3797,2.3779,2.3759,2.3749,2.3733,2.3716,2.3688,2.3689,2.3675,2.3668,2.3655,2.3637,2.3657,2.3656,2.3653,2.3606,2.3605,2.3602,2.3634,2.3634,2.3633,2.3608,0,2.3841,2.3811,2.3805,2.3778,2.3762,2.3759,2.3743,2.3729,2.372,2.3704,2.3693,2.3673,2.3676,2.3668,2.3655,2.3642,2.3627,2.3644,2.3616,2.3615,2.3621,2.3597,2.3596,2.3573,2.3604,2.3604,2.3603,0,2.381,2.3796,2.3768,2.3753,2.3746,2.3732,2.3713,2.3699,2.3682,2.3676,2.3663,2.3657,2.3636,2.3643,2.3613,2.3625,2.3613,2.3605,2.3604,2.3599,2.3607,2.3591,2.3565,2.3561,2.3598,2.3598,2.3599,0,2.3795,2.3769,2.3749,2.3741,2.3723,2.3713,2.3704,2.3689,2.3678,2.3661,2.3653,2.3633,2.3622,2.3606,2.3595,2.3601,2.3565,2.3571,2.3558,2.3558,2.3549,2.355,2.352,2.3544,2.3544,2.3544,2.3544,0,2.3769,2.3751,2.3742,2.3729,2.371,2.3703,2.3683,2.3674,2.366,2.3645,2.364,2.3625,2.3612,2.3595,2.3586,2.3561,2.3556,2.355,2.3547,2.3549,2.355,2.354,2.3541,2.3543,2.3543,2.3544,2.3544,0,2.3748,2.3741,2.3719,2.3704,2.37,2.3686,2.3672,2.3659,2.3651,2.3631,2.3626,2.3612,2.3592,2.358,2.3553,2.3547,2.352,2.3518,2.3526,2.3525,2.3512,2.3513,2.3474,2.3468,2.3497,2.3497,2.3497,0,2.3731,2.3718,2.3703,2.3694,2.3686,2.367,2.366,2.3652,2.3641,2.3622,2.3611,2.3591,2.3574,2.3541,2.3527,2.3506,2.3504,2.3491,2.35,2.3503,2.3502,2.3502,2.3501,2.3489,2.3489,2.3489,2.3489,0,2.3702,2.37,2.3686,2.3671,2.3659,2.3646,2.3633,2.3625,2.3616,2.3603,2.3583,2.3571,2.3545,2.3524,2.3503,2.3491,2.3487,2.3487,2.3482,2.3483,2.3488,2.3484,2.3521,2.3487,2.3487,2.3487,2.3487,2.3487,2.3682,2.3671,2.3659,2.3643,2.3633,2.3622,2.3609,2.3601,2.3585,2.3565,2.3561,2.354,2.3524,2.3496,2.3484,2.3466,2.3468,2.3462,2.346,2.3458,2.3457,2.3493,2.3462,2.3462,2.3462,2.3462,2.3462,0,2.3652,2.3645,2.3631,2.3615,2.3602,2.3604,2.3589,2.3578,2.3561,2.3547,2.3532,2.3509,2.3489,2.3475,2.3454,2.3443,2.344,2.3437,2.3437,2.3435,2.3457,2.3463,2.344,2.344,2.344,2.344,2.344,2.344,2.3635,2.3616,2.3612,2.3587,2.358,2.3561,2.3553,2.3542,2.3531,2.3507,2.3492,2.3484,2.3469,2.3448,2.3429,2.3425,2.3417,2.3414,2.341,2.3431,2.3433,2.3435,2.344,2.3413,2.3413,2.3388,2.3388,2.3388]}]]